User: anonymous   Login
Location: Squamish
(49.7000°N, 123.1500°W)
Time: 02:06:47
(UTC-07:00)
Language:

NOAA 19 - Orbit

View from above orbital plane
View from above orbital plane
View from above satellite
View from above satellite

Ground track
Ground track

The orbit data is extracted from the following two-line orbital elements,

1 33591U 09005A   14303.50793944  .00000242  00000-0  15695-3 0  4438
2 33591 098.9600 248.2280 0015130 097.5864 013.0304 14.11793067295084
Epoch (UTC): 30 October 2014 12:11:25
Eccentricity: 0.0015130
inclination: 98.9600°
perigee height: 842 km
apogee height: 864 km
right ascension of ascending node: 248.2280°
argument of perigee: 97.5864°
revolutions per day: 14.11793067
mean anomaly at epoch: 13.0304°
orbit number at epoch: 29508

The dashed part of the orbit path shows where the satellite is in the earth's shadow,  

DLR